Weather History for Hillsboro, TX

Change the Weather History Date:

Tuesday, June 18, 2013

  Actual Average (KACT) Record (KACT)
Temperature  
Mean Temperature 78 °F 82 °F  
Max Temperature 86 °F 92 °F 106 °F (2011)
Min Temperature 69 °F 71 °F 62 °F (1941)
Degree Days  
Heating Degree Days 0 0  
Month to date heating degree days 0  
Since 1 June heating degree days 0  
Since 1 July heating degree days 2142  
Cooling Degree Days 12 17  
Month to date cooling degree days 274  
Year to date cooling degree days 726  
Since 1 June cooling degree days 274  
Growing Degree Days 28 (Base 50)    
Moisture  
Dew Point 68 °F    
Average Humidity 76    
Maximum Humidity 89    
Minimum Humidity 55    
Precipitation  
Precipitation 0.02 in 0.11 in 1.86 in (1966)
Month to date precipitation 2.37  
Year to date precipitation 17.26  
Sea Level Pressure  
Sea Level Pressure 29.96 in    
Wind  
Wind Speed 6 mph (NNE)    
Max Wind Speed 14 mph    
Max Gust Speed 28 mph    
Visibility 10 miles    
Events Rain , Thunderstorm    
T = Trace of Precipitation, MM = Missing Value Source: NWS Daily Summary

Daily Weather History Graph

Daily Weather History Graph

Search for Another Location

Airport:

Trip Planner

Search our weather history database for the weather conditions in past years. The results will help you decide how hot, cold, wet, or windy it might be!

Date:

Astronomy

Jun. 18, 2013 Rise Set
Actual Time 6:22 AM CDT 8:37 PM CDT
Civil Twilight 5:53 AM CDT 9:05 PM CDT
Nautical Twilight 5:19 AM CDT 9:40 PM CDT
Astronomical Twilight 4:41 AM CDT 10:17 PM CDT
Moon 3:35 PM CDT (6/18) 2:16 AM CDT (6/18)
Length of Visible Light 15h 11m
Length of Day
14h 15m
Waxing Gibbous, 71% of the Moon is Illuminated
Jun 18
Waxing Gibbous
Jun 23
Full
Jun 29
Last Quarter
Jul 8
New
Jul 15
First Quarter

Hourly Weather History & Observations

Time (CDT) Temp. Heat Index Dew Point Humidity Pressure Visibility Wind Dir Wind Speed Gust Speed Precip Events Conditions
12:55 AM 77.0 °F - 66.2 °F 69% 29.95 in 10.0 mi NW 13.8 mph 27.6 mph N/A Rain , Thunderstorm Thunderstorms and Rain
1:15 AM 73.4 °F - 66.2 °F 78% 29.97 in 10.0 mi West 5.8 mph - N/A Rain , Thunderstorm Light Thunderstorms and Rain
1:35 AM 73.4 °F - 68.0 °F 83% 29.92 in 10.0 mi SSE 10.4 mph - 0.01 in Rain , Thunderstorm Light Thunderstorms and Rain
1:55 AM 73.4 °F - 68.0 °F 83% 29.91 in 10.0 mi NE 4.6 mph - 0.01 in   Scattered Clouds
2:15 AM 71.6 °F - 68.0 °F 88% 29.91 in 10.0 mi ENE 8.1 mph - N/A Thunderstorm Clear
2:35 AM 73.4 °F - 68.0 °F 83% 29.92 in 10.0 mi ENE 6.9 mph - N/A   Clear
2:55 AM 75.2 °F - 68.0 °F 78% 29.93 in 10.0 mi SE 5.8 mph - N/A   Scattered Clouds
3:15 AM 75.2 °F - 69.8 °F 83% 29.91 in 10.0 mi East 5.8 mph - N/A   Clear
3:35 AM 75.2 °F - 69.8 °F 83% 29.90 in 10.0 mi SE 3.5 mph - N/A Rain Light Rain
3:55 AM 75.2 °F - 69.8 °F 83% 29.91 in 10.0 mi South 3.5 mph - N/A   Scattered Clouds
4:15 AM 75.2 °F - 69.8 °F 83% 29.90 in 10.0 mi Calm Calm - N/A   Clear
4:35 AM 75.2 °F - 71.6 °F 89% 29.90 in 10.0 mi SSW 8.1 mph - N/A   Clear
4:55 AM 75.2 °F - 69.8 °F 83% 29.93 in 10.0 mi NW 13.8 mph 25.3 mph N/A   Clear
5:15 AM 71.6 °F - 68.0 °F 88% 29.92 in 10.0 mi North 12.7 mph 18.4 mph N/A   Clear
5:35 AM 71.6 °F - 66.2 °F 83% 29.92 in 10.0 mi North 10.4 mph - N/A Thunderstorm Clear
5:55 AM 71.6 °F - 64.4 °F 78% 29.93 in 10.0 mi NNW 8.1 mph - N/A   Clear
6:15 AM 69.8 °F - 64.4 °F 83% 29.95 in 10.0 mi Calm Calm - N/A   Clear
6:35 AM 69.8 °F - 64.4 °F 83% 29.94 in 10.0 mi Calm Calm - N/A   Clear
6:55 AM 69.8 °F - 64.4 °F 83% 29.94 in 10.0 mi Calm Calm - N/A   Clear
7:15 AM 69.8 °F - 64.4 °F 83% 29.94 in 10.0 mi Calm Calm - N/A   Scattered Clouds
7:35 AM 69.8 °F - 66.2 °F 88% 29.96 in 10.0 mi Calm Calm - N/A   Scattered Clouds
7:55 AM 71.6 °F - 66.2 °F 83% 29.96 in 10.0 mi Calm Calm - N/A   Clear
8:15 AM 71.6 °F - 66.2 °F 83% 29.98 in 10.0 mi SW 6.9 mph - N/A   Scattered Clouds
8:35 AM 71.6 °F - 68.0 °F 88% 29.99 in 10.0 mi SW 4.6 mph - N/A   Mostly Cloudy
8:55 AM 71.6 °F - 68.0 °F 88% 30.00 in 10.0 mi WSW 3.5 mph - N/A   Overcast
9:15 AM 71.6 °F - 68.0 °F 88% 29.99 in 10.0 mi SW 3.5 mph - N/A   Scattered Clouds
9:35 AM 73.4 °F - 68.0 °F 83% 30.02 in 10.0 mi West 10.4 mph - 0.01 in Rain Light Rain
9:55 AM 71.6 °F - 68.0 °F 88% 30.01 in 10.0 mi West 9.2 mph - 0.01 in   Mostly Cloudy
10:15 AM 71.6 °F - 68.0 °F 88% 30.02 in 10.0 mi WNW 10.4 mph - N/A   Scattered Clouds
10:35 AM 73.4 °F - 68.0 °F 83% 30.02 in 10.0 mi WNW 9.2 mph - N/A   Scattered Clouds
10:55 AM 71.6 °F - 68.0 °F 88% 30.01 in 10.0 mi NW 10.4 mph - N/A   Light Drizzle
11:15 AM 73.4 °F - 68.0 °F 83% 30.02 in 10.0 mi NW 9.2 mph - N/A   Light Drizzle
11:35 AM 73.4 °F - 68.0 °F 83% 30.01 in 10.0 mi NNW 11.5 mph - N/A   Scattered Clouds
11:55 AM 73.4 °F - 69.8 °F 88% 30.00 in 10.0 mi NNW 11.5 mph - N/A   Scattered Clouds
12:15 PM 75.2 °F - 68.0 °F 78% 30.00 in 10.0 mi NNW 11.5 mph - N/A   Scattered Clouds
12:35 PM 75.2 °F - 68.0 °F 78% 30.00 in 10.0 mi NW 10.4 mph - N/A   Scattered Clouds
12:55 PM 77.0 °F - 68.0 °F 74% 30.00 in 10.0 mi NW 6.9 mph - N/A   Clear
1:15 PM 77.0 °F - 68.0 °F 74% 30.00 in 10.0 mi NNW 3.5 mph - N/A   Scattered Clouds
1:35 PM 77.0 °F - 68.0 °F 74% 30.00 in 10.0 mi North 3.5 mph - N/A   Scattered Clouds
1:55 PM 77.0 °F - 68.0 °F 74% 29.99 in 10.0 mi Calm Calm - N/A   Clear
2:15 PM 78.8 °F - 68.0 °F 69% 29.99 in 10.0 mi Calm Calm - N/A   Clear
2:35 PM 80.6 °F 83.2 °F 68.0 °F 65% 29.99 in 10.0 mi Calm Calm - N/A   Clear
2:55 PM 80.6 °F 83.2 °F 68.0 °F 65% 29.99 in 10.0 mi NNW 4.6 mph - N/A   Clear
3:15 PM 80.6 °F 83.2 °F 68.0 °F 65% 29.98 in 10.0 mi Calm Calm - N/A   Scattered Clouds
3:35 PM 82.4 °F 85.4 °F 68.0 °F 62% 29.97 in 10.0 mi NNW 6.9 mph - N/A   Scattered Clouds
3:55 PM 82.4 °F 86.3 °F 69.8 °F 66% 29.97 in 10.0 mi NNE 4.6 mph - N/A   Scattered Clouds
4:15 PM 82.4 °F 85.4 °F 68.0 °F 62% 29.95 in 10.0 mi Calm Calm - N/A   Scattered Clouds
4:35 PM 82.4 °F 85.4 °F 68.0 °F 62% 29.95 in 10.0 mi Calm Calm - N/A   Clear
4:55 PM 84.2 °F 87.3 °F 68.0 °F 58% 29.95 in 10.0 mi East 3.5 mph - N/A   Scattered Clouds
5:15 PM 84.2 °F 87.3 °F 68.0 °F 58% 29.95 in 10.0 mi Calm Calm - N/A   Scattered Clouds
5:35 PM 84.2 °F 87.3 °F 68.0 °F 58% 29.94 in 10.0 mi Calm Calm - N/A   Scattered Clouds
5:55 PM 84.2 °F 87.3 °F 68.0 °F 58% 29.94 in 10.0 mi Calm Calm - N/A   Scattered Clouds
6:15 PM 86.0 °F 89.4 °F 68.0 °F 55% 29.93 in 10.0 mi East 5.8 mph - N/A   Scattered Clouds
6:35 PM 84.2 °F 86.6 °F 66.2 °F 55% 29.93 in 10.0 mi NE 5.8 mph - N/A   Scattered Clouds
6:55 PM 84.2 °F 86.6 °F 66.2 °F 55% 29.92 in 10.0 mi North 3.5 mph - N/A   Clear
7:15 PM 82.4 °F 85.4 °F 68.0 °F 62% 29.92 in 10.0 mi ENE 6.9 mph - N/A   Clear
7:35 PM 82.4 °F 85.4 °F 68.0 °F 62% 29.92 in 10.0 mi NE 3.5 mph - N/A   Clear
7:55 PM 80.6 °F 82.7 °F 66.2 °F 61% 29.93 in 10.0 mi ENE 3.5 mph - N/A   Clear
8:15 PM 80.6 °F 83.2 °F 68.0 °F 65% 29.93 in 10.0 mi East 4.6 mph - N/A   Clear
8:35 PM 78.8 °F - 68.0 °F 69% 29.94 in 10.0 mi East 4.6 mph - N/A   Clear
8:55 PM 77.0 °F - 68.0 °F 74% 29.95 in 10.0 mi ENE 4.6 mph - N/A   Clear
9:15 PM 77.0 °F - 68.0 °F 74% 29.95 in 10.0 mi ENE 5.8 mph - N/A   Clear
9:35 PM 75.2 °F - 68.0 °F 78% 29.95 in 10.0 mi East 4.6 mph - N/A   Clear
9:55 PM 75.2 °F - 68.0 °F 78% 29.95 in 10.0 mi ENE 5.8 mph - N/A   Clear
10:15 PM 75.2 °F - 68.0 °F 78% 29.96 in 10.0 mi ENE 6.9 mph - N/A   Clear
10:35 PM 73.4 °F - 68.0 °F 83% 29.97 in 10.0 mi ENE 6.9 mph - N/A   Clear
10:55 PM 73.4 °F - 68.0 °F 83% 29.97 in 10.0 mi East 6.9 mph - N/A   Clear
11:15 PM 73.4 °F - 68.0 °F 83% 29.97 in 10.0 mi East 8.1 mph - N/A   Clear
11:35 PM 73.4 °F - 68.0 °F 83% 29.97 in 10.0 mi East 8.1 mph - N/A   Clear
11:55 PM 73.4 °F - 68.0 °F 83% 29.97 in 10.0 mi East 6.9 mph - N/A   Clear